TimeEET,TemperatureF,Dew PointF,Humidity,Sea Level PressureIn,VisibilityMPH,Wind Direction,Wind SpeedMPH,Gust SpeedMPH,PrecipitationIn,Events,Conditions,WindDirDegrees,DateUTC
12:20 AM,28.4,26.6,93,29.89,1.0,SSE,3.5,-,N/A,,Mist,150,2013-01-18 22:20:00
12:50 AM,28.4,24.8,86,29.89,1.6,Calm,Calm,-,N/A,,Mist,0,2013-01-18 22:50:00
1:20 AM,26.6,24.8,93,29.89,1.2,Variable,2.3,-,N/A,,Mist,0,2013-01-18 23:20:00
1:50 AM,28.4,26.6,93,29.89,1.6,Calm,Calm,-,N/A,,Mist,0,2013-01-18 23:50:00
2:00 AM,28,27,92,,2,Calm,Calm,,,,Mist,,2013-01-19 00:00:00
2:20 AM,26.6,24.8,93,29.86,1.6,Calm,Calm,-,N/A,,Mist,0,2013-01-19 00:20:00
2:50 AM,28.4,26.6,93,29.86,1.7,Calm,Calm,-,N/A,,Mist,0,2013-01-19 00:50:00
3:20 AM,33.8,23.0,65,29.86,4.3,North,6.9,-,N/A,,Unknown,360,2013-01-19 01:20:00
3:50 AM,35.6,21.2,56,29.86,5.0,Variable,2.3,-,N/A,,Unknown,0,2013-01-19 01:50:00
4:20 AM,37.4,21.2,52,29.83,5.0,South,4.6,-,N/A,,Unknown,180,2013-01-19 02:20:00
4:50 AM,37.4,19.4,48,29.83,5.6,SSE,9.2,-,N/A,,Unknown,160,2013-01-19 02:50:00
5:20 AM,39.2,15.8,39,29.83,5.6,SSE,11.5,-,N/A,,Unknown,150,2013-01-19 03:20:00
5:50 AM,35.6,21.2,56,29.86,5.0,South,9.2,-,N/A,,Unknown,170,2013-01-19 03:50:00
6:20 AM,35.6,17.6,48,29.86,3.7,South,6.9,-,N/A,,Unknown,180,2013-01-19 04:20:00
6:50 AM,41.0,17.6,39,29.83,-9999.0,SE,23.0,36.8,N/A,,Clear,140,2013-01-19 04:50:00
7:20 AM,41.0,19.4,42,29.83,-9999.0,SE,23.0,35.7,N/A,,Clear,140,2013-01-19 05:20:00
7:50 AM,41.0,17.6,39,29.83,-9999.0,SE,20.7,-,N/A,,Clear,140,2013-01-19 05:50:00
8:00 AM,42,13,18,,12,SE,20.7,,,,Clear,140,2013-01-19 06:00:00
8:20 AM,42.8,19.4,39,29.83,-9999.0,SE,19.6,34.5,N/A,,Clear,140,2013-01-19 06:20:00
8:50 AM,44.6,17.6,34,29.86,-9999.0,SE,19.6,-,N/A,,Clear,130,2013-01-19 06:50:00
9:20 AM,46.4,17.6,32,29.86,-9999.0,SSE,17.3,-,N/A,,Clear,150,2013-01-19 07:20:00
9:50 AM,46.4,19.4,34,29.86,-9999.0,SE,19.6,32.2,N/A,,Clear,140,2013-01-19 07:50:00
10:20 AM,44.6,21.2,39,29.83,-9999.0,SE,21.9,33.4,N/A,,Clear,130,2013-01-19 08:20:00
10:50 AM,46.4,21.2,37,29.80,-9999.0,SE,18.4,32.2,N/A,,Clear,140,2013-01-19 08:50:00
11:20 AM,44.6,21.2,39,29.80,-9999.0,ESE,21.9,33.4,N/A,,Clear,120,2013-01-19 09:20:00
11:50 AM,44.6,21.2,39,29.80,6.2,ESE,25.3,49.5,N/A,,Mostly Cloudy,120,2013-01-19 09:50:00
12:20 PM,44.6,23.0,43,29.80,6.2,SE,25.3,38.0,N/A,,Mostly Cloudy,130,2013-01-19 10:20:00
12:50 PM,44.6,24.8,46,29.80,6.2,ESE,26.5,38.0,N/A,,Mostly Cloudy,120,2013-01-19 10:50:00
1:20 PM,44.6,23.0,43,29.77,6.2,SE,25.3,39.1,N/A,,Mostly Cloudy,140,2013-01-19 11:20:00
1:50 PM,44.6,23.0,43,29.77,6.2,SE,24.2,43.7,N/A,,Mostly Cloudy,140,2013-01-19 11:50:00
2:00 PM,45,23,29,,12,SE,24.2,,,,Partly Cloudy,140,2013-01-19 12:00:00
2:20 PM,44.6,24.8,46,29.77,6.2,SE,24.2,41.4,N/A,,Mostly Cloudy,130,2013-01-19 12:20:00
2:50 PM,44.6,24.8,46,29.80,6.2,SE,21.9,33.4,N/A,,Mostly Cloudy,140,2013-01-19 12:50:00
3:20 PM,44.6,24.8,46,29.80,6.2,SE,18.4,31.1,N/A,,Mostly Cloudy,130,2013-01-19 13:20:00
3:50 PM,42.8,24.8,49,29.80,6.2,SE,23.0,-,N/A,,Mostly Cloudy,130,2013-01-19 13:50:00
4:20 PM,42.8,24.8,49,29.77,6.2,ESE,25.3,41.4,N/A,,Mostly Cloudy,120,2013-01-19 14:20:00
4:50 PM,42.8,26.6,53,29.77,6.2,ESE,23.0,34.5,N/A,,Mostly Cloudy,120,2013-01-19 14:50:00
5:20 PM,42.8,26.6,53,29.77,6.2,ESE,21.9,38.0,N/A,,Mostly Cloudy,120,2013-01-19 15:20:00
5:50 PM,42.8,26.6,53,29.77,6.2,ESE,20.7,-,N/A,,Mostly Cloudy,120,2013-01-19 15:50:00
6:20 PM,42.8,26.6,53,29.80,6.2,ESE,21.9,-,N/A,,Mostly Cloudy,110,2013-01-19 16:20:00
6:50 PM,42.8,28.4,57,29.77,6.2,SSE,20.7,32.2,N/A,,Mostly Cloudy,150,2013-01-19 16:50:00
7:20 PM,42.8,28.4,57,29.77,6.2,SSE,19.6,36.8,N/A,,Mostly Cloudy,160,2013-01-19 17:20:00
7:50 PM,41.0,28.4,61,29.80,6.2,SSE,23.0,-,N/A,,Mostly Cloudy,160,2013-01-19 17:50:00
8:00 PM,41,29,52,,12,SSE,21.9,,,,Partly Cloudy,160,2013-01-19 18:00:00
8:20 PM,41.0,30.2,65,29.83,6.2,South,17.3,29.9,N/A,,Mostly Cloudy,170,2013-01-19 18:20:00
8:50 PM,39.2,32.0,75,29.86,6.2,South,17.3,28.8,N/A,Rain,Light Rain,170,2013-01-19 18:50:00
9:20 PM,39.2,33.8,81,29.86,6.2,South,10.4,-,N/A,Rain-Thunderstorm,Light Thunderstorms and Rain,170,2013-01-19 19:20:00
9:50 PM,35.6,33.8,93,29.89,-9999.0,WSW,16.1,-,N/A,Rain,Rain,250,2013-01-19 19:50:00
10:20 PM,33.8,32.0,93,29.92,-9999.0,WSW,19.6,-,N/A,Snow,Light Snow,250,2013-01-19 20:20:00
10:50 PM,32.0,32.0,100,29.95,1.6,SW,8.1,-,N/A,Snow,Snow,220,2013-01-19 20:50:00
11:20 PM,32.0,32.0,100,29.95,-9999.0,Variable,1.2,-,N/A,Snow,Light Snow,0,2013-01-19 21:20:00
11:50 PM,32.0,30.2,93,29.95,0.9,Calm,Calm,-,N/A,Snow,Snow,0,2013-01-19 21:50:00